Content
SEND FEEDBACK

Daily
Averages
Monthly
Summary
United States of America

LAUREL, FLORIDA


Home > North America > United States > Florida
Elevation: 0 feet     Latitude: 27 06N     Longitude: 082 26W

WEATHER
 
SELECT A DAY
Number of Records: 94,266;   Date Range: 2/3/11 - 12/24/14
 
SHARE

PRINT THIS DATA

[ ← Previous Day ]
WEATHER ALMANAC - FEBRUARY 13, 2013
[ Next Day → ]
[ °C ]   °F
Weather ElementAverageHighLow
Temperature70.3 °F75.2 °F (12:15 pm)64.4 °F (9:35 pm)
Dewpoint68.1 °F71.6 °F (10:15 am)53.6 °F (10:35 pm)
Humidity93 %100 % (12:55 am)68 % (10:35 pm)
Barometer29.96 in30.01 in (11:15 pm)29.91 in (4:15 pm)
Wind Speed11.1 mph16.1 mph (12:55 pm)
Wind Gust23 mph (1:15 pm)
Weather ElementAverage
Visibility4.8 mi
Wind DirectionSSE (166.9 °)

Weather ElementTotal
Precipitation---
Cooling Degree Days4.8 (Base 65)
Growing Degree Days19.8 (Base 50)
Averaged from 70 records on February 13, 2013
WEATHER CONDITIONS BREAKOUT
WIND DIRECTION BREAKOUT
WEATHER BY HOUR - FEBRUARY 13, 2013
[ °C ]   °F
Local TimeTemperatureDewpointHumidityBarometerVisibilityWind DirectionWind SpeedGust SpeedPrecipitationEventsConditions
12:35 AM69.8 °F68.0 °F94 %29.99 in6.0 miSouth (170°)9.2 mphMostly Cloudy
12:55 AM68.0 °F68.0 °F100 %29.98 in6.0 miSouth (170°)8.1 mphClear
1:15 AM68.0 °F68.0 °F100 %29.98 in5.0 miSouth (170°)9.2 mphClear
1:35 AM68.0 °F68.0 °F100 %29.98 in5.0 miSouth (170°)8.1 mphScattered Clouds
1:55 AM68.0 °F68.0 °F100 %29.98 in5.0 miSouth (170°)6.9 mphOvercast
2:15 AM68.0 °F68.0 °F100 %29.98 in5.0 miSouth (170°)8.1 mphOvercast
2:35 AM68.0 °F68.0 °F100 %29.98 in5.0 miSouth (170°)6.9 mphOvercast
3:15 AM68.0 °F68.0 °F100 %29.97 in5.0 miSouth (170°)8.1 mphOvercast
3:35 AM68.0 °F68.0 °F100 %29.97 in5.0 miSouth (170°)6.9 mphOvercast
3:55 AM68.0 °F68.0 °F100 %29.96 in5.0 miSouth (170°)9.2 mphOvercast
4:15 AM68.0 °F68.0 °F100 %29.96 in4.0 miSouth (170°)9.2 mphOvercast
4:35 AM68.0 °F68.0 °F100 %29.95 in3.0 miSouth (170°)9.2 mphOvercast
4:55 AM68.0 °F68.0 °F100 %29.95 in2.5 miSouth (170°)10.4 mphOvercast
5:15 AM68.0 °F68.0 °F100 %29.95 in2.0 miSouth (170°)9.2 mphOvercast
5:35 AM68.0 °F68.0 °F100 %29.95 in2.0 miSouth (170°)10.4 mphOvercast
5:55 AM69.8 °F68.0 °F94 %29.96 in1.2 miSouth (170°)9.2 mphOvercast
6:15 AM69.8 °F69.8 °F100 %29.95 in2.0 miSouth (170°)9.2 mphOvercast
6:35 AM69.8 °F69.8 °F100 %29.95 in2.0 miSouth (170°)11.5 mph17.3 mphOvercast
6:55 AM69.8 °F69.8 °F100 %29.96 in2.5 miSouth (170°)12.7 mph18.4 mphOvercast
7:15 AM69.8 °F69.8 °F100 %29.96 in0.5 miSouth (170°)12.7 mph17.3 mphFogFog
7:35 AM69.8 °F69.8 °F100 %29.97 in0.2 miSouth (180°)12.7 mph19.6 mphFogFog
7:55 AM69.8 °F69.8 °F100 %29.98 in0.2 miSouth (170°)11.5 mphFogFog
8:15 AM69.8 °F69.8 °F100 %29.98 in0.2 miSouth (170°)11.5 mph18.4 mphFogFog
8:35 AM69.8 °F69.8 °F100 %29.98 in0.2 miSouth (180°)11.5 mph17.3 mphFogFog
8:55 AM69.8 °F69.8 °F100 %29.99 in0.2 miSouth (170°)11.5 mphFogFog
9:15 AM69.8 °F69.8 °F100 %29.99 in0.2 miSouth (180°)11.5 mphFogFog
9:35 AM69.8 °F69.8 °F100 %29.99 in0.2 miSouth (180°)12.7 mph17.3 mphFogFog
9:55 AM69.8 °F69.8 °F100 %30.00 in0.2 miSouth (180°)11.5 mphFogFog
10:15 AM71.6 °F71.6 °F100 %30.00 in0.2 miSouth (180°)10.4 mphFogFog
10:35 AM71.6 °F71.6 °F100 %30.00 in0.5 miSouth (180°)12.7 mphFogFog
10:55 AM71.6 °F71.6 °F100 %30.00 in1.5 miSouth (180°)12.7 mph17.3 mphOvercast
11:15 AM73.4 °F71.6 °F94 %29.99 in4.0 miSouth (180°)15.0 mph20.7 mphOvercast
11:35 AM73.4 °F69.8 °F88 %29.99 in4.0 miSouth (190°)11.5 mph19.6 mphOvercast
11:55 AM73.4 °F71.6 °F94 %29.98 in2.5 miSouth (180°)13.8 mph18.4 mphOvercast
12:15 PM75.2 °F71.6 °F89 %29.97 in5.0 miSouth (180°)15.0 mph21.9 mphOvercast
12:35 PM75.2 °F71.6 °F89 %29.97 in5.0 miSouth (180°)15.0 mph18.4 mphOvercast
12:55 PM73.4 °F71.6 °F94 %29.96 in7.0 miSouth (180°)16.1 mph20.7 mphOvercast
1:15 PM75.2 °F71.6 °F89 %29.95 in5.0 miSouth (180°)13.8 mph23.0 mphOvercast
1:35 PM73.4 °F71.6 °F94 %29.94 in7.0 miSouth (180°)16.1 mph21.9 mphMostly Cloudy
1:55 PM75.2 °F71.6 °F89 %29.93 in4.0 miSouth (180°)13.8 mph18.4 mphOvercast
2:15 PM75.2 °F71.6 °F89 %29.93 in8.0 miSouth (190°)16.1 mph20.7 mphMostly Cloudy
2:35 PM75.2 °F71.6 °F89 %29.92 in10.0 miSouth (190°)16.1 mph19.6 mphScattered Clouds
2:55 PM75.2 °F71.6 °F89 %29.92 in9.0 miSSW (200°)15.0 mph20.7 mphPartly Cloudy
3:15 PM75.2 °F71.6 °F89 %29.92 in8.0 miSouth (190°)11.5 mph18.4 mphClear
3:35 PM75.2 °F71.6 °F89 %29.92 in8.0 miSSW (200°)11.5 mph17.3 mphClear
3:55 PM75.2 °F71.6 °F89 %29.92 in8.0 miSouth (190°)12.7 mphClear
4:15 PM73.4 °F71.6 °F94 %29.91 in8.0 miSouth (190°)15.0 mphClear
4:35 PM73.4 °F71.6 °F94 %29.92 in6.0 miSouth (190°)12.7 mphClear
4:55 PM73.4 °F71.6 °F94 %29.91 in6.0 miSouth (190°)11.5 mph17.3 mphClear
5:15 PM73.4 °F71.6 °F94 %29.91 in6.0 miSouth (190°)11.5 mph18.4 mphPartly Cloudy
5:35 PM73.4 °F69.8 °F88 %29.91 in5.0 miSouth (190°)11.5 mph19.6 mphScattered Clouds
5:55 PM71.6 °F69.8 °F94 %29.92 in5.0 miSouth (190°)11.5 mphMostly Cloudy
6:15 PM71.6 °F69.8 °F94 %29.91 in4.0 miSouth (180°)11.5 mph17.3 mphPartly Cloudy
6:35 PM71.6 °F69.8 °F94 %29.91 in4.0 miSouth (180°)10.4 mphPartly Cloudy
6:55 PM71.6 °F69.8 °F94 %29.92 in4.0 miSouth (180°)9.2 mphMostly Cloudy
7:15 PM71.6 °F69.8 °F94 %29.93 in4.0 miSouth (190°)9.2 mphMostly Cloudy
7:35 PM71.6 °F71.6 °F100 %29.94 in3.0 miSSW (200°)10.4 mphOvercast
7:55 PM71.6 °F69.8 °F94 %29.94 in3.0 miSSW (200°)9.2 mphOvercast
8:15 PM71.6 °F69.8 °F94 %29.95 in3.0 miSSW (210°)8.1 mphOvercast
8:35 PM71.6 °F69.8 °F94 %29.95 in3.0 miSSW (200°)10.4 mphOvercast
8:55 PM66.2 °F64.4 °F94 %29.96 in7.0 miNNW (340°)16.1 mphOvercast
9:15 PM66.2 °F59.0 °F78 %29.98 in10.0 miNorth (10°)16.1 mph20.7 mphRainLight Rain
9:35 PM64.4 °F57.2 °F77 %29.98 in10.0 miNNE (20°)11.5 mph16.1 mphMostly Cloudy
9:55 PM64.4 °F55.4 °F73 %29.99 in10.0 miNorth (360°)11.5 mphOvercast
10:15 PM64.4 °F55.4 °F73 %30.00 in10.0 miNNE (30°)10.4 mphOvercast
10:35 PM64.4 °F53.6 °F68 %30.00 in10.0 miNNE (20°)6.9 mphOvercast
10:55 PM64.4 °F53.6 °F68 %30.00 in10.0 miNNE (20°)5.8 mphOvercast
11:15 PM64.4 °F55.4 °F73 %30.01 in10.0 miNNE (20°)5.8 mphOvercast
11:35 PM64.4 °F55.4 °F73 %30.01 in10.0 miNorth (10°)5.8 mphOvercast
11:55 PM64.4 °F55.4 °F73 %30.01 in10.0 miNNE (30°)6.9 mphOvercast
Hourly data recorded from KVNC, located miles away from Laurel, Florida







STORIES FROM OUR PARTNERS